Location: Kellogg
(38.0159°N, 90.0546°W)
Time: 19:25:15
(UTC+00:00)

Tiros 1 despin weight - Pass Details

Date: 21 September 2024
Orbit: 572 x 614 km, 48.2° (Epoch: 08 October)

Event Time Altitude Azimuth Distance (km) Brightness Sun altitude
Exits shadow 11:04:13 - 307° (NW) 2,567 ? -9.3°
Reaches altitude 10° 11:05:52 10° 314° (NW) 1,984 ? -9.0°
Maximum altitude 11:09:59 32° 18° (NNE) 1,070 ? -8.2°
Drops below altitude 10° 11:14:05 10° 82° (E) 1,982 ? -7.4°
Sets 11:16:35 0° 93° (E) 2,884 ? -6.9°
